Main page
METAR-TAF:

METAR-TAF

Airports :

Brownwood Regional Airport

Brownwood, Texas, United States

latitude: 31-48N, longitude: 098-57W, elevation: 1384 ft

Current weather observation

The report was made 35 minutes ago, at 00:35 UTC
Wind 10 mph from the East
Temperature 50°F
Humidity 62%
Pressure 29.91 in. Hg
Visibility: 10 miles
Clear sky

METAR: KBWD 220035Z AUTO 08009KT 10SM CLR 10/03 A2991 RMK AO1

Time: 19:10 (01:10 UTC)


TAF: missing

Weather observations and forecasts of more than 4000 airports (METAR and TAF reports).

The available stations are represented by yellow and red dots on the map.

Hover mouse over dot to see the name of the station.

Then click to see weather observations and forecasts.

To change the map : click on the green buttons with a black cross to zoom in, on the green button with a dash to zoom out, or on the green arrows for adjacent maps.


METAR-TAF: